Batesville, AR

1:02 PM CDT on October 16, 2019 (GMT -0500)
Batesville Regional

Weather History for KBVX - September, 2019

Change the Weather History Date:

Sunday, September 15, 2019

  Actual Average Record
Temperature  
Mean Temperature 80 °F -  
Max Temperature 96 °F 84 °F 100 °F (1954)
Min Temperature 64 °F 61 °F 45 °F (1979)
Cooling Degree Days 15    
Growing Degree Days 30 (Base 50)    
Moisture  
Dew Point 67 °F    
Average Humidity 68    
Maximum Humidity 97    
Minimum Humidity 38    
Precipitation  
Precipitation 0.00 in - - ()
Sea Level Pressure  
Sea Level Pressure 30.10 in    
Wind  
Wind Speed 2 mph ()    
Max Wind Speed 8 mph    
Max Gust Speed -    
Visibility 9.9 miles    
Events      
Averages and records for this station are not official NWS values.
T = Trace of Precipitation, MM = Missing Value Source: Averaged Metar Reports

Daily Weather History Graph

Daily Weather History Graph

Search for Another Location

Airport or City:

Astronomy

Sep. 15, 2019 Rise Set
Actual Time 6:49 AM CDT 7:14 PM CDT
Civil Twilight 6:23 AM CDT 7:39 PM CDT
Nautical Twilight 5:53 AM CDT 8:09 PM CDT
Astronomical Twilight 5:22 AM CDT 8:40 PM CDT
Moon 8:23 PM CDT (9/15) 7:58 AM CDT (9/15)
Length of Visible Light 13h 16m
Length of Day
12h 24m
Full, 98% of the Moon is Illuminated
Sep 15
Full
Sep 21
Last Quarter
Sep 28
New
Oct 5
First Quarter
Oct 13
Full

Hourly Weather History & Observations

Time (CDT) Temp. Heat Index Dew Point Humidity Pressure Visibility Wind Dir Wind Speed Gust Speed Precip Events Conditions
2:56 AM 66.0 °F - 64.9 °F 96% 30.14 in 10.0 mi NNW 3.5 mph - N/A   Clear
3:56 AM 64.9 °F - 64.0 °F 97% 30.13 in 10.0 mi NNW 3.5 mph - N/A   Clear
4:56 AM 64.9 °F - 64.0 °F 97% 30.13 in 10.0 mi NW 3.5 mph - N/A   Clear
5:56 AM 64.9 °F - 63.0 °F 93% 30.13 in 10.0 mi Calm Calm - N/A   Clear
6:56 AM 64.0 °F - 63.0 °F 96% 30.14 in 10.0 mi Calm Calm - N/A   Clear
7:56 AM 68.0 °F - 64.0 °F 87% 30.15 in 10.0 mi Calm Calm - N/A   Clear
8:56 AM 73.9 °F - 66.0 °F 76% 30.15 in 10.0 mi Calm Calm - N/A   Clear
9:56 AM 80.1 °F 82.3 °F 66.9 °F 64% 30.16 in 10.0 mi Calm Calm - N/A   Clear
11:56 AM 90.0 °F 96.4 °F 71.1 °F 54% 30.15 in 10.0 mi Calm Calm - N/A   Clear
12:56 PM 93.0 °F 99.0 °F 70.0 °F 47% 30.13 in 10.0 mi Variable 3.5 mph - N/A   Clear
1:56 PM 93.9 °F 100.3 °F 70.0 °F 46% 30.10 in 10.0 mi Variable 4.6 mph - N/A   Scattered Clouds
2:56 PM 95.0 °F 97.9 °F 66.0 °F 38% 30.07 in 10.0 mi SSE 4.6 mph - N/A   Clear
3:56 PM 96.1 °F 101.0 °F 68.0 °F 40% 30.05 in 10.0 mi Calm Calm - N/A   Clear
4:56 PM 95.0 °F 99.0 °F 66.9 °F 40% 30.04 in 8.0 mi Calm Calm - N/A   Overcast
5:56 PM 93.9 °F 96.1 °F 64.9 °F 38% 30.04 in 10.0 mi ESE 8.1 mph - N/A   Clear
6:56 PM 89.1 °F 91.0 °F 64.9 °F 45% 30.04 in 10.0 mi SSE 4.6 mph - N/A   Clear
7:56 PM 80.1 °F 82.3 °F 66.9 °F 64% 30.05 in 10.0 mi Calm Calm - N/A   Clear
8:56 PM 78.1 °F - 68.0 °F 71% 30.06 in 10.0 mi Calm Calm - N/A   Clear
9:56 PM 78.1 °F - 68.0 °F 71% 30.07 in 10.0 mi Calm Calm - N/A   Clear
10:56 PM 75.0 °F - 68.0 °F 79% 30.09 in 10.0 mi Calm Calm - N/A   Clear
11:56 PM 73.0 °F - 69.1 °F 87% 30.08 in 10.0 mi Calm Calm - N/A   Clear